EW4694 Weather Reports


Display with metric or nautical units.
time (UTC)temp
F
wind
direction
speed
MPH
gust
MPH
rain 1hr
in
rain 24hr
in
rain mn
in
humidity
%
barometer
mb
20260507101507 0 0.0 0.0 0.00 0.07 0.00 1013.8
20260507100043 0 0.0 0.0 0.00 0.07 0.00 1013.8
20260507094537 0 0.0 0.0 0.00 0.08 0.00 1013.9
20260507093015 0 0.0 0.0 0.00 0.08 0.00 1013.9
20260507091511 0 0.0 0.0 0.00 0.08 0.00 1013.7
20260507090054 0 0.0 0.0 0.00 0.08 0.00 1013.7
20260507084545 0 0.0 0.0 0.00 0.10 0.00 1013.7
20260507083024 49 184 0.0 0.0 0.00 0.10 0.00 1 1013.7
20260507081523 49 184 0.0 0.0 0.00 0.10 0.00 1 1013.8
20260507080005 49 184 0.0 0.0 0.00 0.10 0.00 1 1013.8
20260507074606 49 184 0.0 0.0 0.00 0.10 0.00 1 1013.9
20260507073133 50 184 0.0 0.0 0.00 0.10 0.00 1 1013.9
20260507071551 50 184 0.0 0.0 0.00 0.10 0.00 1 1013.7
20260507070047 50 184 0.0 0.0 0.00 0.10 0.00 1 1013.7
20260507064603 50 184 0.0 0.0 0.00 0.10 0.00 1 1013.6
20260507063047 50 184 0.0 0.0 0.00 0.10 0.00 1 1013.6
20260507061538 50 184 0.0 0.0 0.00 0.10 0.00 1 1013.7
20260507060012 51 184 0.0 0.0 0.00 0.10 0.00 1 1013.9
20260507054508 51 184 0.0 0.0 0.00 0.10 0.00 1 1013.9
20260507053047 51 184 0.0 0.0 0.00 0.10 0.00 1 1013.9
20260507051543 51 184 0.0 0.0 0.00 0.10 0.00 1 1014.1
20260507050021 51 184 0.0 0.0 0.00 0.10 0.00 1 1014.3
20260507044517 51 184 0.0 0.0 0.00 0.10 0.00 1 1014.2
20260507043058 51 184 0.0 0.0 0.00 0.10 0.00 1 1014.1
20260507041558 51 184 0.0 0.0 0.00 0.10 0.00 1 1014.0
20260507040030 51 184 0.0 0.0 0.00 0.10 0.00 1 1014.0
20260507034626 51 184 0.0 0.0 0.00 0.10 0.10 1 1013.8
20260507033004 51 184 0.0 0.0 0.00 0.10 0.10 1 1013.8
20260507031559 51 184 0.0 0.0 0.00 0.10 0.10 1 1013.8
20260507030038 52 184 0.0 0.0 0.00 0.10 0.10 1 1014.2
20260507024533 52 184 0.0 0.0 0.00 0.10 0.10 1 1014.0
20260507023012 52 184 0.0 0.0 0.00 0.10 0.10 1 1013.7
20260507021507 52 193 0.0 0.0 0.00 0.10 0.10 1 1013.6
20260507020052 52 193 0.0 0.0 0.00 0.10 0.10 1 1013.5
20260507014547 53 193 0.0 0.0 0.00 0.10 0.10 1 1013.5
20260507013042 53 193 0.0 0.0 0.00 0.10 0.10 1 1012.9
20260507011540 53 193 0.0 0.0 0.00 0.10 0.10 1 1013.1
20260507010039 53 193 0.0 0.0 0.00 0.10 0.10 1 1013.1
20260507004529 53 193 0.0 0.0 0.01 0.10 0.10 1 1012.9
20260507003025 53 193 0.0 0.0 0.01 0.10 0.10 1 1012.7
20260507001520 54 190 0.0 0.0 0.01 0.10 0.10 1 1012.5
20260507000059 54 211 0.0 0.0 0.01 0.10 0.10 1 1012.4
20260506234602 54 217 0.0 0.0 0.00 0.09 0.09 1 1012.9
20260506233035 54 217 0.0 0.0 0.00 0.09 0.09 1 1012.6
20260506231535 54 217 0.0 0.0 0.00 0.09 0.09 1 1012.7
20260506230008 54 217 0.0 0.0 0.00 0.09 0.09 1 1012.8
20260506224516 54 217 0.0 0.0 0.00 0.09 0.09 1 1012.8
20260506223043 54 217 0.0 0.0 0.00 0.09 0.09 1 1012.3
20260506221538 54 217 0.0 0.0 0.00 0.09 0.09 1 1012.2
20260506220030 54 275 0.0 0.0 0.02 0.09 0.09 1 1012.2
20260506214513 54 297 0.0 0.0 0.02 0.09 0.09 1 1012.0
20260506213058 54 296 0.0 0.0 0.02 0.09 0.09 1 1011.9
20260506211556 55 295 0.0 0.0 0.02 0.09 0.09 1 1012.0
20260506210049 55 294 0.0 0.0 0.00 0.07 0.07 6 1011.5
20260506204545 55 294 0.0 0.0 0.00 0.07 0.07 4 1011.4
20260506203040 55 293 0.0 0.0 0.00 0.07 0.07 3 1011.3
20260506201536 55 324 0.0 0.0 0.00 0.07 0.07 1 1011.1
20260506200032 55 297 0.0 0.0 0.00 0.07 0.07 1 1011.0
20260506194534 56 323 0.0 0.0 0.00 0.07 0.07 1 1010.7
20260506193012 56 304 0.0 0.0 0.00 0.07 0.07 1 1010.6
20260506191507 56 290 0.0 0.0 0.00 0.07 0.07 1 1010.6
20260506190002 57 298 0.0 0.0 0.00 0.07 0.07 1 1010.4
20260506184558 57 295 0.0 0.0 0.00 0.07 0.07 1 1010.3
20260506183100 58 283 0.0 0.0 0.00 0.07 0.07 1 1010.0
20260506181601 58 277 0.0 0.0 0.00 0.07 0.07 1 1010.1
20260506180048 58 304 0.0 0.0 0.00 0.07 0.07 1 1010.1
20260506174541 58 300 0.0 0.0 0.00 0.07 0.07 1 1010.1
20260506173047 59 314 0.0 0.0 0.00 0.07 0.07 1 1010.1
20260506171520 60 292 0.0 0.0 0.00 0.07 0.07 1 1009.9
20260506170011 61 296 0.0 0.0 0.00 0.07 0.07 1 1009.7
20260506164553 61 258 0.0 0.0 0.01 0.07 0.07 1 1009.7
20260506163050 60 274 0.0 0.0 0.01 0.07 0.07 1 1009.5
20260506161545 60 282 0.0 0.0 0.02 0.07 0.07 1 1009.2
20260506160046 60 289 0.0 0.0 0.02 0.07 0.07 1 1009.3
20260506154537 60 284 0.0 0.0 0.01 0.06 0.06 1 1009.0
20260506153033 60 294 0.0 0.0 0.01 0.06 0.06 1 1008.8
20260506151530 60 293 0.0 0.0 0.00 0.05 0.05 1 1008.7
20260506150025 60 274 0.0 0.0 0.00 0.05 0.05 1 1008.5
20260506144502 59 248 0.0 0.0 0.00 0.05 0.05 1 1008.2
20260506143100 59 273 0.0 1.0 0.00 0.05 0.05 1 1008.1
20260506141539 59 341 0.0 0.0 0.00 0.05 0.05 1 1007.8
20260506140037 59 289 0.0 0.0 0.00 0.05 0.05 1 1007.6
20260506134520 58 278 0.0 0.0 0.01 0.05 0.05 1 1007.8
20260506133010 58 202 0.0 0.0 0.01 0.05 0.05 1 1007.8
20260506131559 58 122 0.0 0.0 0.01 0.05 0.05 1 1007.8
20260506130052 57 115 0.0 0.0 0.01 0.05 0.05 1 1007.6
20260506124522 57 113 0.0 0.0 0.00 0.04 0.04 1 1007.4
20260506123018 56 113 0.0 0.0 0.01 0.04 0.04 1 1007.6
20260506121657 56 132 0.0 0.0 0.01 0.04 0.04 1 1007.5
20260506120053 56 132 0.0 0.0 0.01 0.04 0.04 1 1007.4
20260506114536 56 132 0.0 0.0 0.01 0.04 0.04 1 1007.3
20260506113032 0 0.0 0.0 0.00 0.03 0.03 1007.2
20260506111630 0 0.0 0.0 0.00 0.03 0.03 1007.1
20260506110024 0 0.0 0.0 0.00 0.03 0.03 1007.1
20260506104519 0 0.0 0.0 0.00 0.03 0.03 1007.0
20260506103022 0 0.0 0.0 0.00 0.03 0.03 1006.9